Location: Rounton
(54.4000°N, 1.3500°W)
Time: 17:41:26
(UTC+01:00)

S-56A Canister/Altair - Pass Details

Date: 12 September 2024
Orbit: 636 x 2487 km, 38.9° (Epoch: 06 October)

Event Time Altitude Azimuth Distance (km) Brightness Sun altitude
Rises 22:08:19 0° 238° (WSW) 3,789 11.3 -21.7°
Reaches altitude 10° 22:11:01 10° 227° (SW) 3,062 10.6 -22.0°
Maximum altitude 22:17:28 29° 170° (S) 2,423 9.6 -22.7°
Enters shadow 22:17:46 29° 167° (SSE) 2,446 9.6 -22.7°
Drops below altitude 10° 22:26:20 10° 117° (ESE) 4,288 - -23.6°
Sets 22:30:55 0° 108° (ESE) 5,576 - -24.0°
